Location: Dana
(41.8364°N, 106.7042°W)
Time: 14:38:43
(UTC+00:00)

Tiros 1 despin weight - Pass Details

Date: 14 May 2026
Orbit: 554 x 591 km, 48.2° (Epoch: 6 June)

Event Time Altitude Azimuth Distance (km) Brightness Sun altitude
Rises 13:38:04 0° 258° (WSW) 2,746 ? 18.7°
Reaches altitude 10° 13:40:23 10° 264° (W) 1,847 ? 19.2°
Maximum altitude 13:44:30 52° 341° (NNW) 700 ? 19.9°
Drops below altitude 10° 13:48:36 10° 58° (ENE) 1,837 ? 20.7°
Sets 13:50:54 0° 64° (ENE) 2,732 ? 21.1°
